Location: Poughquag
(41.6090°N, 73.6820°W)
Time: 07:43:17
(UTC-04:00)

Transit 2A Rocket - All Passes

Search period start: 29 May 2020 00:00
Search period end: 08 June 2020 00:00
Orbit: 585 x 918 km, 66.7° (Epoch: 29 May)

Date Brightness Start Highest point End Pass type
(mag) Time Alt. Az. Time Alt. Az. Time Alt. Az.
29 May - 01:17:59 10° W 01:21:32 18° NW 01:25:18 10° N visible
29 May - 06:34:40 10° N 06:38:26 17° NE 06:42:14 10° ENE daylight
29 May - 08:16:02 10° NNW 08:22:08 71° ENE 08:28:13 10° SE daylight
29 May - 09:59:57 10° WNW 10:04:12 20° WSW 10:08:27 10° SSW daylight
29 May - 22:50:58 10° S 22:55:39 47° ESE 23:00:51 10° NE visible
30 May - 00:34:13 10° WSW 00:38:33 27° NW 00:43:14 10° NNE visible
30 May - 05:53:09 10° NNE 05:55:15 12° NNE 05:57:22 10° NE daylight
30 May - 07:33:37 10° NNW 07:39:27 46° NE 07:45:17 10° SE daylight
30 May - 09:16:35 10° NW 09:21:57 33° WSW 09:27:16 10° S daylight
30 May - 22:09:15 10° SSE 22:13:21 27° ESE 22:17:48 10° NE visible
30 May - 23:50:55 10° WSW 23:55:41 42° NW 00:00:56 10° NNE visible
31 May - 06:51:18 10° NNW 06:56:37 30° NE 07:01:57 10° ESE daylight
31 May - 08:33:38 10° NW 08:39:34 54° WSW 08:45:27 10° S daylight
31 May - 21:28:23 10° SE 21:31:11 15° ESE 21:34:05 10° ENE visible
31 May - 23:08:01 10° SW 23:12:58 70° WNW 23:18:30 10° NNE visible
01 Jun - 00:53:54 10° WNW 00:56:45 14° NW 00:59:45 10° N visible
01 Jun - 06:09:09 10° N 06:13:39 21° NE 06:18:11 10° E daylight
01 Jun - 07:50:55 10° NNW 07:57:04 86° WSW 08:03:10 10° SSE daylight
01 Jun - 09:35:54 10° WNW 09:38:50 14° WSW 09:41:46 10° SW daylight
01 Jun - 22:25:31 10° SSW 22:30:25 69° ESE 22:35:54 10° NE visible
02 Jun - 00:09:45 10° W 00:13:40 21° NW 00:17:51 10° N visible
02 Jun - 05:27:15 10° N 05:30:33 15° NE 05:33:53 10° ENE daylight
02 Jun - 07:08:24 10° NNW 07:14:26 61° NE 07:20:28 10° SE daylight
02 Jun - 08:51:55 10° NW 08:56:39 24° WSW 09:01:20 10° SSW daylight
02 Jun - 21:43:27 10° S 21:48:01 39° ESE 21:53:04 10° NE visible
02 Jun - 23:26:10 10° WSW 23:30:43 31° NW 23:35:41 10° NNE visible
03 Jun - 04:46:16 10° NNE 04:47:20 10° NNE 04:48:23 10° NE visible
03 Jun - 06:26:00 10° NNW 06:31:41 39° NE 06:37:23 10° ESE daylight
03 Jun - 08:08:44 10° NW 08:14:21 39° WSW 08:19:54 10° S daylight
03 Jun - 21:01:58 10° SSE 21:05:46 22° ESE 21:09:52 10° NE visible
03 Jun - 22:43:00 10° SW 22:47:55 50° NW 22:53:21 10° NNE visible
04 Jun - 00:30:15 10° NW 00:32:02 11° NNW 00:33:52 10° NNW visible
04 Jun - 05:43:44 10° N 05:48:49 27° NE 05:53:55 10° ESE daylight
04 Jun - 07:25:53 10° NW 07:31:56 64° WSW 07:37:54 10° SSE daylight
04 Jun - 20:21:39 10° SE 20:23:38 12° E 20:25:40 10° ENE daylight
04 Jun - 22:00:15 10° SSW 22:05:16 83° WNW 22:10:51 10° NNE visible
04 Jun - 23:45:31 10° WNW 23:48:52 17° NW 23:52:23 10° N visible
05 Jun - 05:01:39 10° N 05:05:48 19° NE 05:09:59 10° E daylight
05 Jun - 06:43:14 10° NNW 06:49:23 81° ENE 06:55:28 10° SSE daylight
05 Jun - 08:27:35 10° WNW 08:31:18 17° WSW 08:34:59 10° SW daylight
05 Jun - 21:17:53 10° SSW 21:22:46 57° ESE 21:28:10 10° NE visible
05 Jun - 23:01:36 10° W 23:05:50 24° NW 23:10:22 10° N visible
06 Jun - 04:19:53 10° N 04:22:39 13° NNE 04:25:27 10° ENE visible
06 Jun - 06:00:46 10° NNW 06:06:43 52° NE 06:12:39 10° SE daylight
06 Jun - 07:43:58 10° NW 07:49:05 28° WSW 07:54:07 10° SSW daylight
06 Jun - 20:36:00 10° S 20:40:25 32° ESE 20:45:14 10° NE daylight
06 Jun - 22:18:10 10° WSW 22:22:55 37° NW 22:28:08 10° NNE visible
07 Jun - 05:18:24 10° NNW 05:23:55 34° NE 05:29:25 10° ESE daylight
07 Jun - 07:00:56 10° NW 07:06:44 46° WSW 07:12:28 10° S daylight
07 Jun - 19:54:46 10° SSE 19:58:12 19° ESE 20:01:49 10° ENE daylight
07 Jun - 21:35:09 10° SW 21:40:10 60° NW 21:45:44 10° NNE visible
07 Jun - 23:21:35 10° WNW 23:24:07 13° NNW 23:26:45 10° N visible
